Preview of NWS' New Version of Forecast
This preview is not operational and should not be used for support decisions.

Regional Weather Roundup (RWR)

Issued by Pendleton, OR (PDT)

                            
000
ASUS46 KPDT 200725
RWRPDT
PENDLETON REGIONAL WEATHER ROUNDUP
NATIONAL WEATHER SERVICE PENDLETON OREGON
1200 AM PDT MON MAY 20 2019

NOTE: FAIR INDICATES FEW OR NO CLOUDS BELOW 12,000 FEET WITH NO
SIGNIFICANT WEATHER AND/OR OBSTRUCTIONS TO VISIBILITY.

# INDICATES UNOFFICIAL STATION AND DATA

WAZ520-200810-
EAST SLOPES OF WASHINGTON CASCADES

CITY            SKY/WX      TMP DP  RH  WIND    PRES   REMARKS
#BULLFROG       N/A         55  45  69  CALM    N/A                          
#ELK HTS DOT    N/A         52  52  100 SW3     N/A                          
#GLENWOOD       N/A         51  48  89  CALM    29.72R                       
#TROUT LAKE 1NE N/A         53  48  83  CALM    29.72R                       
#TROUT LAKE 1E  N/A         52  47  83  CALM    29.75S                       
$$

WAZ521-200810-
SIMCOE HIGHLANDS

CITY            SKY/WX      TMP DP  RH  WIND    PRES   REMARKS
#SATUS PASS DOT N/A         46  44  93  CALM    N/A                          
#CENTERVILLE 1SWN/A         51  46  83  S1      29.65S                       
#LYLE 6NE       N/A         51  48  89  CALM    29.74R                       
#PITT 4SE       N/A         48  46  93  SW10    29.74R                       
$$

WAZ026-200810-
KITTITAS VALLEY

CITY            SKY/WX      TMP DP  RH  WIND    PRES   REMARKS
ELLENSBURG AP   CLOUDY      54  49  83  N7      29.75R                       
#ELLENSBURG CWU N/A         53  49  86  W2      29.65S                       
#ELLENSBURG 3NE N/A         52  49  89  CALM    27.85R                       
#ELLENSBURG 1E  N/A         52  49  89  CALM    29.74R                       
#KITTITAS 3S    N/A         52  49  89  CALM    29.69R                       
#MANASTASH RDG  N/A         50  44  80  NW8     N/A                          
#ROCKY CYN DOT  N/A         53  49  86  SW6     N/A                          
#RYEGRASS DOT   N/A         53  35  50  NE12    N/A                          
#THORP 6N       N/A         46  36  68  CALM    29.73S                       
$$

WAZ027-200810-
YAKIMA VALLEY

CITY            SKY/WX      TMP DP  RH  WIND    PRES   REMARKS
SUNNYSIDE AP    CLOUDY      59  42  53  N13     29.68R                       
YAKIMA AIRPORT  CLOUDY      59  46  62  N9      29.72R                       
YAKIMA-VAGABOND MOCLDY      57  45  64  N9      29.71R                       
#DONALD 2NE     N/A         62  14  15  NW8     28.56                        
#GRANDVIEW      N/A         60  40  47  NE2     29.67                        
#MABTON         N/A         59  46  62  N5      29.67R                       
#NACHES 2SW     N/A         54  50  86  W1      29.75R                       
#OUTLOOK DOT    N/A         62  39  43  VRB5    29.66R                       
#PARKER DOT     N/A         60  46  60  S9      29.70R                       
#TERRACE HTS    N/A         58  43  57  CALM    29.66R                       
#TOPPENISH      N/A         63  43  48  CALM    29.61R                       
#I82 S UMTANUM RN/A         55  39  55  N12     N/A                          
#UNION GAP DOT  N/A         60  45  58  CALM    29.71R                       
#W YAKIMA       N/A         55  48  77  N2      29.70                        
#ZILLAH DOT     N/A         62  39  43  N3      N/A                          
$$

WAZ028-200810-
LOWER COLUMBIA BASIN...WASHINGTON

CITY            SKY/WX      TMP DP  RH  WIND    PRES   REMARKS
HANFORD         CLOUDY      57  40  53  NE6     29.67R                       
PASCO           PTCLDY      58  43  57  N7      29.64S                       
RICHLAND AWOS   PTCLDY      60  40  47  W7      29.66R                       
#BASIN CITY 5SW N/A         56  41  57  NE8     29.63S                       
#CONNELL 5N     N/A         54  39  57  N8      29.65R                       
#CONNELL 5NW    N/A         54  28  36  N6      29.60R                       
#ELTOPIA 6NW    N/A         57  41  55  NE13    28.63S                       
#KENNEWICK 3S   N/A         57  44  62  N1      29.63S                       
#PROSSER DOT    N/A         54  44  69  CALM    29.67R                       
#SAGEMOOR 2W    N/A         58  40  51  N8      29.49S                       
#TOUCHET 2S     N/A         56  52  86  SW8     29.59S                       
$$

WAZ029-200810-
FOOTHILLS OF THE BLUES...WASHINGTON

CITY            SKY/WX      TMP DP  RH  WIND    PRES   REMARKS
WALLA WALLA AP  MOCLDY      55  50  83  S9      29.63S                       
#CLYDE 6NW      N/A         56  40  55  NE18G25 29.61R                       
#DELANEY DOT    N/A         55  42  61  E3      29.66R                       
#LOWDEN 2SE     N/A         54  51  90  SW1     29.59S                       
#PLEASANT VIEW 1N/A         53  39  59  N6      29.65R                       
#PRESCOTT       N/A         55  49  80  CALM    29.60R                       
#WHITMAN COLLEGEN/A         54  52  93  S3      29.66S                       
#WAITSBURG 6SSE N/A         51  48  89  E2      29.45R                       
#WALLA WALLA 5E N/A         53  50  89  S2      N/A                          
$$

WAZ030-200810-
BLUE MOUNTAINS...WASHINGTON
 
CITY            SKY/WX      TMP DP  RH  WIND    PRES   REMARKS
#DIXIE 5SE      N/A         52  47  83  N6      29.57S                       
$$

ORZ009-041-WAZ024-200810-
COLUMBIA RIVER GORGE

CITY            SKY/WX      TMP DP  RH  WIND    PRES   REMARKS
HOOD RIVER AP   CLOUDY      55  48  77  NW6     29.76R                       
THE DALLES AP   CLOUDY      59  48  67  NW16G26 29.70R                       
#ARLINGTON AIRPON/A         57  49  75  W16     29.63S                       
#CELILO DOT     N/A         61  43  51  SW8     N/A                          
#LYLE           N/A         59  51  75  NW12G24 29.74R                       
#MARYHILL       N/A         56  47  72  N15G25  N/A                          
#MURDOCK        N/A         59  50  72  W18G29  29.66                        
#RUFUS DOT      N/A         61  49  65  W14G28  N/A                          

$$

ORZ510-200810-
NORTH CENTRAL OREGON

CITY            SKY/WX      TMP DP  RH  WIND    PRES   REMARKS
#ANTELOPE       N/A         44  42  93  CALM    29.59S                       
#COW CYN RST AREN/A         44  43  96  SW3     N/A                          
#DUFUR          N/A         55  45  69  NW2     29.66S                       
#DUFUR 9E       N/A         50  44  80  NW7     29.76R                       
#GRASS VALLEY 1SN/A         51  45  80  W10     29.87R                       
#KENT DOT       N/A         45  39  79  W9      N/A                          
#SHANIKO 5WSW   N/A         43  43  100 S3      N/A                          
#WAPANITIA AIRPON/A         52  46  80  W5      29.71S                       
#WASCO 5NE      N/A         52  46  80  W10     29.67R                       
$$

ORZ511-200810-
CENTRAL OREGON

CITY            SKY/WX      TMP DP  RH  WIND    PRES   REMARKS
BEND AIRPORT    LGT RAIN    45  43  93  SW5     29.76S                       
MADRAS AIRPORT  MOCLDY      45  43  93  S5      29.76S                       
PRINEVILLE AP   CLOUDY      45  43  93  W7      29.75S                       
REDMOND AIRPORT LGT RAIN    46  41  83  W10     29.75F                       
#ASHWOOD SCHOOL N/A         47  44  89  CALM    29.73R                       
#BEND 1SW       N/A         43  41  93  S1      N/A                          
#BEND-AWBREY    N/A         44  43  96  S3      29.74                        
#BEND-KIM LN    N/A         44  42  93  W5      29.68F                       
#CULVER         N/A         46  44  93  CALM    29.38F                       
#LAKE BILLY CHINN/A         46  N/A N/A SE5     29.84S                       
#POWELL BUTTE   N/A         43  42  96  W9      29.72F                       
#PRINEVILLE     N/A         45  43  93  CALM    29.83R                       
#PRINEVILLE 3N  N/A         45  43  93  W1      29.73                        
#WARM SPRINGS   N/A         50  47  89  CALM    29.58S                       

$$


ORZ509-200810-
EAST SLOPES OF OREGON CASCADES

CITY            SKY/WX      TMP DP  RH  WIND    PRES   REMARKS
#BLUE BOX PASS  N/A         42  N/A N/A NW2     N/A                          
#CAMP SHERMAN   N/A         43  40  89  CALM    29.80S                       
#LA PINE 4NW    N/A         39  36  89  CALM    30.10S                       
#LAVA BUTTE DOT N/A         39  38  96  SE2     N/A                          
#SISTERS ODOT   N/A         44  40  86  CALM    N/A                          
#TUMALO 3W      N/A         43  41  93  CALM    29.62S                       
#WANOGA BUTTE D N/A         35  32  89  N1      N/A                          

$$

ORZ044-200810-
LOWER COLUMBIA BASIN...OREGON

CITY            SKY/WX      TMP DP  RH  WIND    PRES   REMARKS
HERMISTON       PTCLDY      54  49  83  SW6     29.64S                       
#BOARDMAN 8SW   N/A         53  48  83  SW3     29.65                        
#ECHO 8SW       N/A         54  54  100 CALM    29.65S                       
#I-84 EX 198 DOTN/A         53  51  93  NE3     N/A                          
#IONE SCHOOL    N/A         54  40  59  SW5     29.66F                       
#UMATILLA       N/A         57  49  75  CALM    29.57R                       
$$

ORZ507-200810-
NORTHERN FOOTHILLS OF THE BLUES

CITY            SKY/WX      TMP DP  RH  WIND    PRES   REMARKS
PENDLETON AIRPT PTCLDY      49  47  93  NE3     29.64S                       
#ADAMS 3WNW     N/A         49  47  93  CALM    29.61S                       
#ATHENA         N/A         50  49  96  CALM    29.65S                       
#CAYUSE         N/A         52  49  89  CALM    29.61F                       
#HELIX SCHOOL   N/A         51  48  89  CALM    29.61S                       
#HELIX 3N       N/A         50  48  93  SW9     29.68S                       
#HOLDMAN 5SE    N/A         52  49  89  CALM    29.65S                       
#HOLDMAN 6E     N/A         50  49  96  CALM    29.42S                       
#M-FREEWATER 5SEN/A         52  48  86  W2      29.65S                       
#PDT AQUATIC CTRN/A         52  50  93  CALM    29.65S                       
#PDT SUNRIDGE   N/A         50  48  93  CALM    29.66R                       
#PENDLETON 6SE  N/A         50  48  93  SE6     29.58S                       
#TUTUILLA       N/A         48  45  89  CALM    29.70S                       
#UMAPINE 2E     N/A         52  49  89  CALM    29.61R                       
#WESTON SCHOOL  N/A         51  47  86  NW1     29.51R                       

$$

ORZ508-200810-
SOUTHERN FOOTHILLS OF THE BLUES

CITY            SKY/WX      TMP DP  RH  WIND    PRES   REMARKS
#AJAX           N/A         50  39  66  CALM    29.88S                       
#HEPPNER EOC    N/A         50  47  89  W7      29.58F                       
#HEPPNER 4NE    N/A         47  46  96  W5      29.65S                       
#LEXINGTON 2SE  N/A         53  49  86  CALM    29.65S                       
#OLEX 4N        N/A         53  48  83  SW10    29.67S                       
#RUGGS 5NE      N/A         49  48  96  SW6     29.81F                       
#RUGGS 2SW      N/A         48  45  89  W9      29.67F                       

$$

ORZ502-503-200810-
BLUE MOUNTAINS

CITY            SKY/WX      TMP DP  RH  WIND    PRES   REMARKS
MEACHAM         CLOUDY      46  44  93  CALM    29.67R                       
#BATTLE MTN DOT N/A         44  43  96  CALM    N/A                          
#GRANITE        N/A         41  39  93  W2      29.32S                       
#HARDMAN 10S    N/A         43  42  96  CALM    29.78F                       
#LADD CYN SMT   N/A         46  45  96  NW1     N/A                          
#N POWDER DOT   N/A         48  45  89  NE3     N/A                          
#TOLLGATE       N/A         41  40  96  CALM    29.75S                       
#TROY SCHOOL    N/A         51  48  89  CALM    29.46R                       
#WESTON 4E      N/A         47  46  96  CALM    29.59S                       
$$

ORZ505-200810-
JOHN DAY BASIN

CITY            SKY/WX      TMP DP  RH  WIND    PRES   REMARKS
JOHN DAY        RAIN        45  44  96  W14     29.67S WCI 39                
#DAYVILLE SCHOOLN/A         59  52  78  N6      29.73S                       
#MITCHELL 8NW   N/A         43  41  93  CALM    29.76R                       
#MONUMENT HS    N/A         50  47  89  CALM    29.65S                       
$$

ORZ506-200810-
OCHOCO AND JOHN DAY HIGHLANDS

CITY            SKY/WX      TMP DP  RH  WIND    PRES   REMARKS
#HORSE RIDGE DO N/A         42  40  93  CALM    N/A                          
#PAULINA ODOT   N/A         43  N/A N/A W8      N/A                          
#PRAIRIE CITY   N/A         44  43  96  W1      29.80S                       
#SENECA 9NW     N/A         41  40  96  CALM    29.63S                       
$$

ORZ049-200810-
GRANDE RONDE VALLEY

CITY            SKY/WX      TMP DP  RH  WIND    PRES   REMARKS
LA GRANDE       MOCLDY      50  44  80  NW14    29.64S                       
#COVE SCHOOL    N/A         48  47  96  CALM    29.67F                       
#COVE 6NW       N/A         48  45  89  CALM    29.60R                       
#ELGIN 3N       N/A         47  44  89  CALM    29.47                        
#ELGIN 1E       N/A         47  41  79  CALM    N/A                          
#IMBLER SCHOOL  N/A         46  44  93  CALM    29.63S                       
#ISLAND CITY 4N N/A         52  50  93  CALM    29.81F                       
#LADD CYN DOT   N/A         49  48  96  SE8     N/A                          
#UNION 1S       N/A         49  46  89  CALM    29.59S                       
$$

ORZ050-200810-
WALLOWA COUNTY

CITY            SKY/WX      TMP DP  RH  WIND    PRES   REMARKS
#ENTERPRISE HS  N/A         49  45  86  CALM    29.48S                       
#IMNAHA 10S     N/A         46  44  93  S1      29.65S                       
#JOSEPH         N/A         47  46  96  SW2     29.89R                       
#JOSEPH 3N      N/A         48  41  77  CALM    29.72R                       
#LOSTINE        N/A         46  44  93  CALM    29.40S                       
#LOSTINE 3SE    N/A         46  44  93  CALM    29.72R                       
#MT HOWARD 8000 N/A         32  30  92  CALM    29.68R                       
#PROMISE 1S     N/A         43  41  93  SW1     29.68F                       
#WALLOWA LAKE   N/A         44  43  96  CALM    29.69R                       
#WALLOWA SCHOOL N/A         47  45  93  CALM    29.64R                       



$$